This demonstration page uses our WeatherBlox Daily Observations layout. Learn more.

Left ArrowRight Arrow

Hourly Observations for July 31, 2021

Temp ( °F °C ) Dew Point ( °F °C ) Humidity (%) Winds ( mph kmh ) Pressure ( in mb ) Visibility ( mi km ) Precip ( " mm )
8:55 am 08:55 Partly Cloudy 64 18 64 18 100 100 NNE 3 6 30.04 1017 10 16 N/A
9:15 am 09:15 Mostly Cloudy 64 18 64 18 100 100 N N/A 30.04 1017 10 16 N/A
9:35 am 09:35 Mostly Cloudy 66 19 66 19 100 100 N N/A 30.04 1017 10 16 N/A
9:55 am 09:55 Cloudy 66 19 66 19 100 100 N N/A 30.03 1017 10 16 N/A
10:15 am 10:15 Cloudy 68 20 68 20 100 100 N N/A 30.03 1017 10 16 N/A
10:35 am 10:35 Mostly Cloudy 70 21 68 20 94 94 E 3 6 30.02 1016 10 16 N/A
10:55 am 10:55 Partly Cloudy 70 21 68 20 94 94 S 5 7 30.02 1016 10 16 N/A
11:15 am 11:15 Partly Cloudy 70 21 68 20 94 94 N N/A 30.03 1017 10 16 N/A
11:35 am 11:35 Sunny 72 22 66 19 83 83 SSW 5 7 30.03 1017 10 16 N/A
11:55 am 11:55 Mostly Cloudy 72 22 68 20 88 88 SW 6 9 30.04 1017 10 16 N/A
12:15 pm 12:15 Cloudy 70 21 68 20 94 94 WSW 6 9 30.06 1018 10 16 N/A
12:35 pm 12:35 Cloudy 72 22 68 20 88 88 SW 8 13 30.05 1018 10 16 N/A
12:55 pm 12:55 Partly Cloudy 72 22 68 20 88 88 SW 8 13 30.05 1018 10 16 N/A
1:15 pm 13:15 Sunny 72 22 66 19 83 83 SW 10 17 30.04 1017 10 16 N/A
1:35 pm 13:35 Partly Cloudy 70 21 66 19 88 88 SW 12 19 30.05 1017 10 16 N/A
1:55 pm 13:55 Mostly Cloudy 70 21 64 18 83 83 SW 9 15 30.05 1017 10 16 N/A
2:15 pm 14:15 Mostly Cloudy 70 21 66 19 88 88 WSW 14 22 30.04 1017 10 16 N/A
2:35 pm 14:35 Cloudy 70 21 64 18 83 83 WSW 10 17 30.03 1017 10 16 N/A
2:55 pm 14:55 Cloudy 70 21 64 18 83 83 W 8 13 30.01 1016 10 16 N/A
3:15 pm 15:15 Cloudy 70 21 64 18 83 83 W 6 9 30.00 1016 10 16 N/A
3:35 pm 15:35 Mostly Cloudy 72 22 64 18 78 78 W 7 11 29.99 1016 10 16 N/A
3:55 pm 15:55 Partly Cloudy 72 22 63 17 73 73 W 6 9 29.98 1015 10 16 N/A
4:15 pm 16:15 Partly Cloudy 72 22 64 18 78 78 WSW 8 13 29.98 1015 10 16 N/A
4:35 pm 16:35 Partly Cloudy 72 22 63 17 73 73 WSW 7 11 29.98 1015 10 16 N/A
6:35 pm 18:35 Sunny 73 23 59 15 61 61 N N/A 29.96 1015 10 16 N/A
6:55 pm 18:55 Sunny 73 23 59 15 61 61 WNW 6 9 29.96 1015 10 16 N/A
7:15 pm 19:15 Sunny 73 23 59 15 61 61 WNW 7 11 29.96 1015 10 16 N/A
7:35 pm 19:35 Sunny 72 22 59 15 65 65 WNW 5 7 29.96 1015 10 16 N/A
7:55 pm 19:55 Sunny 70 21 61 16 73 73 N N/A 29.97 1015 10 16 N/A
8:15 pm 20:15 Sunny 68 20 63 17 83 83 N N/A 29.97 1015 10 16 N/A
8:35 pm 20:35 Sunny 66 19 63 17 88 88 S 3 6 29.97 1015 10 16 N/A
8:55 pm 20:55 Sunny 64 18 63 17 94 94 N N/A 29.97 1015 10 16 N/A
9:15 pm 21:15 Clear 64 18 61 16 88 88 N N/A 29.97 1015 7 11 N/A
9:35 pm 21:35 Clear 63 17 61 16 94 94 N N/A 29.98 1015 7 11 N/A
9:55 pm 21:55 Clear 63 17 61 16 94 94 N N/A 29.98 1015 7 11 N/A
10:15 pm 22:15 Clear 63 17 61 16 94 94 N N/A 29.98 1015 7 11 N/A
10:35 pm 22:35 Clear 61 16 61 16 100 100 N N/A 29.98 1015 7 11 N/A
10:55 pm 22:55 Clear 61 16 61 16 100 100 NW 3 6 29.98 1015 7 11 N/A
11:15 pm 23:15 Clear 59 15 59 15 100 100 N N/A 29.98 1015 7 11 N/A
11:35 pm 23:35 Clear 59 15 59 15 100 100 WSW 3 6 29.98 1015 7 11 N/A
11:55 pm 23:55 Clear 59 15 59 15 100 100 W 3 6 29.98 1015 7 11 N/A

Powered by AerisWeather